Tracking 19177 objects as of 24-May-2018
HD Live streaming from Space Station
objects crossing your sky now

FLOCK 3P 34

Track FLOCK 3P 34 now!
10-day predictions
FLOCK 3P 34 is classified as:


NORAD ID: 41988
Int'l Code: 2017-008AS
Perigee: 493.5 km
Apogee: 506.6 km
Inclination: 97.5 °
Period: 94.5 minutes
Semi major axis: 6871 km
RCS: Unknown
Launch date: February 15, 2017
Source: United States (US)
Launch site: SRIHARIKOTA (SRI)
aabbcc
Your satellite tracking list
Your tracking list is empty




NASA's NSSDC Master Catalog

Two Line Element Set (TLE):
1 41988U 17008AS  18143.18423106 +.00001783 +00000-0 +75827-4 0  9990
2 41988 097.4521 208.2452 0009540 082.6178 277.6144 15.24306068069622
Source of the keplerian elements: AFSPC